| time (UTC) | temp F | wind direction | speed knots | gust knots | rain 1hr in | rain 24hr in | rain mn in | humidity % | barometer mb |
| 20260503150236 | 54 | 112 | 2.6 | 3.5 | 0.00 | 0.00 | 0.00 | 98 | 1022.0 |
| 20260503140231 | 60 | 120 | 2.6 | 4.3 | 0.00 | 0.00 | 0.00 | 98 | 1022.0 |
| 20260503131227 | 54 | 121 | 2.6 | 4.3 | 0.00 | 0.00 | 0.00 | 98 | 1021.0 |
| 20260503130226 | 59 | 121 | 2.6 | 4.3 | 0.00 | 0.00 | 0.00 | 98 | 1021.0 |
| 20260503120222 | 55 | 129 | 2.6 | 4.3 | 0.01 | 0.00 | 0.00 | 99 | 1020.0 |
| 20260503110218 | 49 | 124 | 2.6 | 4.3 | 0.02 | 0.00 | 0.00 | 99 | 1019.0 |
| 20260503100213 | 61 | 122 | 2.6 | 3.5 | 0.01 | 0.00 | 0.00 | 97 | 1019.0 |
| 20260503090209 | 61 | 119 | 0.9 | 1.7 | 0.00 | 0.00 | 0.00 | 97 | 1018.0 |
| 20260503081205 | 53 | 135 | 0.9 | 1.7 | 0.00 | 0.00 | 0.00 | 97 | 1018.0 |
| 20260503080201 | 61 | 135 | 0.9 | 0.9 | 0.00 | 0.00 | 0.00 | 97 | 1018.0 |
| 20260503072158 | 55 | 126 | 0.9 | 1.7 | 0.00 | 0.00 | 0.00 | 97 | 1019.0 |
| 20260503071157 | 59 | 126 | 0.9 | 0.9 | 0.00 | 0.00 | 0.00 | 96 | 1019.0 |
| 20260503070156 | 56 | 126 | 0.9 | 1.7 | 0.00 | 0.00 | 0.00 | 96 | 1019.0 |
| 20260503060152 | 58 | 121 | 0.9 | 0.9 | 0.00 | 0.00 | 0.00 | 96 | 1020.0 |
| 20260503054151 | 59 | 117 | 0.9 | 0.9 | 0.00 | 0.00 | 0.00 | 97 | 1020.0 |
| 20260503053150 | 56 | 117 | 0.9 | 0.9 | 0.00 | 0.00 | 0.00 | 97 | 1020.0 |
| 20260503052149 | 52 | 117 | 0.9 | 1.7 | 0.00 | 0.00 | 0.00 | 97 | 1021.0 |
| 20260503051148 | 59 | 117 | 0.9 | 0.9 | 0.00 | 0.00 | 0.00 | 97 | 1021.0 |
| 20260503050148 | 56 | 117 | 0.9 | 1.7 | 0.00 | 0.00 | 0.00 | 97 | 1021.0 |
| 20260503045147 | 60 | 117 | 0.9 | 0.9 | 0.00 | 0.00 | 0.00 | 97 | 1021.0 |
| 20260503044146 | 57 | 117 | 0.9 | 1.7 | 0.00 | 0.00 | 0.00 | 97 | 1021.0 |
| 20260503043145 | 61 | 117 | 0.9 | 1.7 | 0.00 | 0.00 | 0.00 | 98 | 1021.0 |
| 20260503042145 | 58 | 107 | 0.9 | 2.6 | 0.00 | 0.00 | 0.00 | 98 | 1022.0 |
| 20260503041144 | 55 | 107 | 1.7 | 2.6 | 0.00 | 0.00 | 0.00 | 98 | 1022.0 |
| 20260503040143 | 59 | 107 | 0.9 | 2.6 | 0.00 | 0.00 | 0.00 | 96 | 1022.0 |
| 20260503035143 | 56 | 107 | 0.9 | 2.6 | 0.00 | 0.00 | 0.00 | 96 | 1022.0 |
| 20260503034142 | 53 | 107 | 1.7 | 2.6 | 0.00 | 0.00 | 0.00 | 96 | 1022.0 |
| 20260503033141 | 60 | 105 | 0.9 | 3.5 | 0.00 | 0.00 | 0.00 | 96 | 1022.0 |
| 20260503032140 | 57 | 105 | 0.9 | 3.5 | 0.00 | 0.00 | 0.00 | 96 | 1022.0 |
| 20260503031134 | 53 | 105 | 0.9 | 3.5 | 0.00 | 0.00 | 0.00 | 96 | 1022.0 |
| 20260503030134 | 50 | 105 | 1.7 | 3.5 | 0.00 | 0.00 | 0.00 | 96 | 1022.0 |
| 20260503025133 | 61 | 105 | 1.7 | 3.5 | 0.00 | 0.00 | 0.00 | 97 | 1022.0 |
| 20260503024132 | 58 | 105 | 0.9 | 3.5 | 0.00 | 0.00 | 0.00 | 97 | 1022.0 |
| 20260503023131 | 55 | 105 | 1.7 | 3.5 | 0.00 | 0.00 | 0.00 | 97 | 1022.0 |
| 20260503022129 | 59 | 102 | 0.9 | 2.6 | 0.00 | 0.00 | 0.00 | 95 | 1021.0 |
| 20260503021128 | 56 | 102 | 1.7 | 2.6 | 0.00 | 0.00 | 0.00 | 95 | 1021.0 |
| 20260503020127 | 59 | 102 | 0.9 | 2.6 | 0.00 | 0.00 | 0.00 | 95 | 1021.0 |
| 20260503015127 | 56 | 102 | 1.7 | 2.6 | 0.00 | 0.00 | 0.00 | 95 | 1021.0 |
| 20260503014126 | 60 | 114 | 0.9 | 2.6 | 0.00 | 0.00 | 0.00 | 94 | 1021.0 |
| 20260503013125 | 57 | 114 | 0.9 | 2.6 | 0.00 | 0.00 | 0.00 | 94 | 1021.0 |
| 20260503012124 | 53 | 114 | 0.9 | 2.6 | 0.00 | 0.00 | 0.00 | 94 | 1020.0 |
| 20260503011123 | 50 | 114 | 0.9 | 2.6 | 0.00 | 0.00 | 0.00 | 94 | 1020.0 |
| 20260503010123 | 58 | 114 | 0.9 | 2.6 | 0.00 | 0.00 | 0.00 | 96 | 1020.0 |
| 20260503005122 | 58 | 114 | 0.9 | 2.6 | 0.00 | 0.00 | 0.00 | 96 | 1020.0 |
| 20260503004121 | 60 | 114 | 0.9 | 2.6 | 0.00 | 0.00 | 0.00 | 94 | 1020.0 |
| 20260503003121 | 57 | 114 | 0.0 | 0.9 | 0.00 | 0.00 | 0.00 | 94 | 1022.0 |
| 20260503002120 | 61 | 72 | 0.0 | 0.9 | 0.00 | 0.00 | 0.00 | 95 | 1019.0 |
| 20260503001119 | 58 | 72 | 0.0 | 0.9 | 0.00 | 0.00 | 0.00 | 95 | 1019.0 |
| 20260503000119 | 58 | 72 | 0.0 | 0.9 | 0.00 | 0.00 | 0.00 | 95 | 1019.0 |
| 20260502235118 | 55 | 72 | 0.0 | 0.9 | 0.00 | 0.00 | 0.00 | 95 | 1019.0 |
| 20260502234117 | 59 | 72 | 0.0 | 0.9 | 0.00 | 0.00 | 0.00 | 95 | 1019.0 |
| 20260502233117 | 59 | 107 | 0.9 | 3.5 | 0.00 | 0.00 | 0.00 | 96 | 1019.0 |
| 20260502232116 | 56 | 107 | 0.9 | 3.5 | 0.00 | 0.00 | 0.00 | 96 | 1019.0 |
| 20260502231115 | 60 | 107 | 0.9 | 3.5 | 0.00 | 0.00 | 0.00 | 95 | 1019.0 |
| 20260502230115 | 57 | 107 | 0.9 | 3.5 | 0.00 | 0.00 | 0.00 | 95 | 1019.0 |
| 20260502225114 | 53 | 107 | 0.9 | 3.5 | 0.00 | 0.00 | 0.00 | 95 | 1019.0 |
| 20260502224113 | 50 | 107 | 0.9 | 3.5 | 0.00 | 0.00 | 0.00 | 95 | 1019.0 |
| 20260502223112 | 61 | 107 | 0.9 | 3.5 | 0.00 | 0.00 | 0.00 | 97 | 1019.0 |
| 20260502222112 | 58 | 114 | 0.9 | 3.5 | 0.00 | 0.00 | 0.00 | 97 | 1018.0 |
| 20260502221111 | 55 | 114 | 1.7 | 3.5 | 0.00 | 0.00 | 0.00 | 97 | 1018.0 |
| 20260502220110 | 59 | 114 | 0.9 | 3.5 | 0.00 | 0.00 | 0.00 | 97 | 1018.0 |
| 20260502215107 | 56 | 114 | 1.7 | 3.5 | 0.00 | 0.00 | 0.00 | 97 | 1018.0 |
| 20260502214106 | 59 | 114 | 0.9 | 3.5 | 0.00 | 0.00 | 0.00 | 98 | 1018.0 |
| 20260502213105 | 56 | 114 | 1.7 | 3.5 | 0.00 | 0.00 | 0.00 | 98 | 1018.0 |
| 20260502212104 | 59 | 109 | 2.6 | 4.3 | 0.00 | 0.00 | 0.00 | 98 | 1017.0 |
| 20260502211104 | 56 | 109 | 2.6 | 4.3 | 0.01 | 0.00 | 0.00 | 98 | 1017.0 |
| 20260502205102 | 50 | 109 | 2.6 | 4.3 | 0.01 | 0.00 | 0.00 | 98 | 1017.0 |
| 20260502204101 | 58 | 117 | 2.6 | 4.3 | 0.00 | 0.00 | 0.00 | 98 | 1017.0 |
| 20260502203101 | 54 | 117 | 2.6 | 4.3 | 0.01 | 0.00 | 0.00 | 98 | 1017.0 |
| 20260502202100 | 51 | 117 | 2.6 | 4.3 | 0.00 | 0.00 | 0.00 | 98 | 1018.0 |
| 20260502201059 | 60 | 117 | 2.6 | 4.3 | 0.00 | 0.00 | 0.00 | 95 | 1018.0 |
| 20260502200059 | 57 | 117 | 2.6 | 4.3 | 0.00 | 0.00 | 0.00 | 95 | 1018.0 |
| 20260502195058 | 54 | 117 | 2.6 | 4.3 | 0.00 | 0.00 | 0.00 | 95 | 1018.0 |